Location: ??????????
(54.7560°N, 39.1389°E)
Time: 14:33:59
(UTC+00:00)

Cosmos 1302 Rocket - Pass Details

Date: 19 May 2025
Orbit: 752 x 772 km, 74.0° (Epoch: 20 June)

Event Time Altitude Azimuth Distance (km) Brightness Sun altitude
Rises 22:51:14 0° 332° (NNW) 3,226 7.9 -12.8°
Reaches altitude 10° 22:53:37 10° 333° (NNW) 2,299 7.1 -12.6°
Maximum altitude 22:58:51 89° 61° (ENE) 769 4.0 -12.3°
Drops below altitude 10° 23:04:04 10° 154° (SSE) 2,297 6.1 -12.0°
Enters shadow 23:05:52 - 155° (SSE) 2,998 6.7 -11.9°
